ASIASTAR

Last updated on Wed Oct 22 2025 00:02:45 GMT+0000 (Coordinated Universal Time)

1 26107U 00016A 25294.63457683 -.00000325 00000+0 00000+0 0 9996 2 26107 8.5705 60.6426 0006860 169.1870 133.9708 1.00274815 93527
UTC large
Height (km)
Speed (km/s)
/
Latitude / Longitude
Inclination (degrees)
Orbital Period (minutes)
Azimuth
Elevation
Range (km)
Doppler Factor

Next 0 passes for location: London (51.5072 / 0.1276)

Sorry there are no passes over London.